Temp
59 59 59 59 59 59 59 59 58 57 57 57 57 57 57 57 57 57 57 56 57 57 58 58 58 58 54 48 53 64 67 67 64 66 64 62 58 57 53 54 55 53 57 59 61 60 58
59 59 59 58 58 59 59 58 58 57 57 57 56 56 56 57 57 57 56 56 56 56 57 57 58 58 49 45 65 64 64 63 63 63 63 64 61 62 56 56 55 58 57 58 58 58 58
59 59 58 58 58 58 58 57 57 57 57 57 57 56 56 56 56 56 56 56 55 56 56 57 58 55 49 52 60 60 62 63 62 63 61 63 63 58 57 54 59 57 51 54 55 54 57
58 59 59 58 58 57 57 57 57 57 57 57 57 56 56 55 55 55 55 55 55 55 56 57 57 54 43 64 60 59 58 60 63 64 63 64 65 60 57 59 57 51 50 43 53 55 56
58 58 59 58 58 57 57 57 56 57 57 56 56 56 55 55 55 55 54 55 55 56 57 56 52 49 44 65 60 63 63 62 62 64 63 72 64 57 55 49 45 45 40 42 50 56 53
58 58 58 58 58 57 57 57 56 56 56 56 56 56 55 55 55 54 54 55 55 55 55 56 58 44 53 59 65 67 62 65 61 61 60 57 54 49 46 44 37 40 41 45 45 50 52
57 58 58 58 57 58 58 57 57 56 56 56 56 56 55 55 55 54 52 49 45 44 47 45 47 47 53 63 67 62 64 61 60 57 50 53 46 43 47 48 50 48 46 43 48 54 51
56 56 56 57 57 57 57 57 56 55 55 55 55 55 55 54 54 54 48 45 48 49 39 50 49 50 56 60 50 58 64 56 54 49 52 47 44 53 53 52 50 48 45 45 50 54 52
55 55 56 55 57 57 57 56 56 55 55 55 54 54 54 54 53 48 43 48 54 53 40 45 50 50 54 55 50 53 58 57 53 48 49 48 50 57 53 49 48 46 46 45 47 50 51
54 54 55 55 55 56 56 56 56 55 55 54 54 54 53 53 48 44 43 51 52 51 34 40 47 50 56 55 48 61 63 60 53 48 50 48 57 53 50 49 51 43 51 51 49 45 38
54 54 54 54 55 55 54 54 54 54 54 54 54 54 53 53 45 41 47 50 51 49 24 48 50 61 56 51 53 55 63 57 49 50 51 46 49 50 47 50 53 50 54 50 49 44 40
54 54 54 54 54 53 53 53 53 53 54 53 53 53 53 48 44 45 47 48 47 34 24 43 53 51 49 52 52 57 56 58 58 52 48 49 56 53 52 57 55 57 50 49 45 42 33
53 53 52 53 53 52 52 53 53 53 53 53 53 53 50 50 41 46 47 42 33 24 45 42 44 48 48 47 50 50 48 47 44 40 42 47 50 54 56 50 52 52 44 33 32 31 32
53 53 53 53 53 52 53 53 53 52 52 52 52 51 49 49 47 47 42 35 25 37 37 45 44 46 43 45 47 47 46 41 48 46 41 39 37 50 55 52 48 47 45 33 31 30 34
52 52 52 52 52 53 53 52 52 52 52 52 51 43 43 44 47 45 36 22 30 35 43 40 42 38 38 43 43 44 42 42 45 48 40 38 39 54 57 58 58 47 42 50 38 34 32
52 52 52 52 51 51 51 51 51 52 52 51 41 41 41 45 47 42 33 29 32 42 43 42 34 38 32 36 38 40 39 46 44 48 49 45 37 51 54 55 55 52 53 41 37 31 30
51 51 51 51 51 51 51 51 51 52 51 51 41 37 47 46 45 37 27 27 36 44 44 38 36 35 35 34 37 36 38 44 46 46 48 45 40 42 51 47 46 46 46 44 44 38 33
50 50 51 50 51 51 50 51 51 51 51 47 40 31 43 47 33 34 30 34 41 40 44 40 40 37 34 35 34 35 36 42 48 47 41 44 38 32 43 55 56 51 49 49 40 35 35
49 50 50 50 50 50 50 50 50 50 50 39 36 36 43 44 28 29 35 36 38 37 38 38 37 40 40 35 31 35 37 46 48 45 41 45 38 31 36 46 50 46 49 50 46 41 37
49 49 50 49 50 50 50 50 50 50 51 42 36 30 36 39 36 33 32 32 32 40 37 39 37 38 36 32 37 33 35 42 45 46 48 46 39 36 31 35 43 41 48 52 47 36 40
49 49 49 50 50 50 50 50 50 50 50 42 36 32 37 25 31 33 34 34 32 33 38 38 35 35 33 29 32 32 37 39 43 47 44 42 33 38 40 40 40 41 45 48 47 46 41
49 49 49 49 49 50 49 50 50 50 50 40 33 33 35 35 35 32 34 32 33 35 36 34 33 36 36 31 34 32 36 36 37 41 40 40 32 35 35 41 41 40 46 48 48 45 45
49 49 49 49 49 50 50 50 50 50 49 38 40 41 37 36 33 32 33 34 34 38 40 42 39 38 35 37 40 42 41 41 40 37 35 36 34 32 30 38 38 34 43 47 47 47 47
48 48 48 49 49 49 49 49 49 50 49 43 43 40 34 30 32 33 36 38 36 38 36 42 43 38 43 49 48 43 41 40 40 39 41 35 34 32 30 33 27 41 50 52 49 50 49
48 48 48 48 48 48 48 49 49 49 50 44 44 40 36 30 35 34 37 38 39 41 39 40 42 47 49 43 35 31 29 31 34 38 38 41 36 31 29 30 34 41 46 45 44 47 54
47 48 48 48 48 48 48 48 49 49 50 46 44 45 40 33 33 40 36 39 35 34 35 37 46 50 45 35 32 27 23 30 31 35 42 41 40 34 31 27 26 39 47 51 51 38 52
48 48 48 48 49 49 49 48 48 49 50 46 44 46 41 34 40 42 36 36 42 38 34 39 40 39 43 32 28 27 27 36 28 28 32 32 34 30 31 30 34 45 46 48 36 37 51
48 48 48 49 49 49 49 49 49 49 49 46 43 46 41 36 39 44 45 41 42 41 33 39 36 36 34 30 29 29 26 30 31 35 33 31 30 30 32 30 27 47 45 40 45 47 50
47 48 48 48 48 48 49 49 49 49 49 48 41 46 47 40 39 46 49 52 51 50 42 40 39 38 36 33 29 29 25 25 31 26 38 31 36 33 35 35 46 47 47 51 52 48 51
MSLP
1022.45 1022.04 1021.87 1021.81 1021.95 1021.76 1021.55 1021.63 1021.47 1021.46 1020.99 1021.02 1020.89 1020.28 1019.69 1019.70 1019.10 1018.56 1018.06 1017.89 1017.44 1017.30 1017.11 1016.90 1016.72 1016.08 1015.04 1014.09 1011.33 1009.04 1008.91 1008.97 1009.05 1009.22 1009.43 1009.87 1010.26 1010.10 1010.34 1010.30 1010.41 1010.52 1010.15 1009.75 1009.17 1009.01 1008.67
1022.38 1022.13 1021.94 1021.83 1021.72 1021.72 1021.61 1021.54 1021.25 1021.08 1021.23 1020.65 1020.57 1020.53 1019.70 1019.32 1019.05 1018.57 1017.91 1017.42 1017.11 1016.83 1016.54 1016.42 1016.47 1016.40 1015.68 1013.54 1009.28 1009.29 1009.22 1009.18 1009.17 1009.13 1009.30 1009.49 1009.69 1009.59 1009.74 1009.94 1010.07 1009.57 1009.51 1009.44 1008.75 1008.27 1008.29
1022.20 1022.04 1021.79 1021.66 1021.55 1021.49 1021.67 1021.57 1021.48 1021.18 1020.73 1020.69 1020.28 1020.06 1019.99 1019.13 1018.80 1018.25 1017.57 1016.98 1016.51 1016.16 1015.76 1015.78 1016.02 1016.33 1015.39 1010.94 1008.99 1009.17 1009.56 1009.40 1009.20 1009.17 1009.22 1009.12 1009.33 1009.64 1009.78 1009.90 1009.53 1009.35 1009.59 1009.18 1008.27 1007.91 1007.78
1021.96 1021.70 1021.72 1021.63 1021.48 1021.15 1021.39 1021.43 1021.33 1021.09 1020.81 1020.43 1020.24 1019.79 1019.63 1019.12 1018.53 1017.99 1017.40 1016.65 1015.77 1015.14 1014.81 1014.96 1015.49 1015.73 1013.85 1009.55 1009.17 1009.15 1009.15 1009.05 1008.79 1009.03 1009.28 1009.03 1009.31 1009.74 1009.86 1009.75 1009.83 1009.71 1009.63 1009.80 1008.28 1008.02 1007.66
1021.68 1021.38 1021.35 1021.23 1021.11 1021.20 1021.21 1021.31 1021.07 1021.03 1020.51 1020.46 1020.01 1019.63 1019.15 1018.87 1018.32 1017.86 1017.10 1015.95 1014.95 1014.43 1013.77 1014.24 1015.05 1015.02 1011.70 1009.24 1008.97 1007.95 1008.29 1008.51 1008.19 1008.34 1008.93 1008.87 1009.29 1009.81 1010.05 1010.32 1010.67 1010.39 1010.26 1010.05 1009.01 1007.85 1007.82
1021.34 1021.15 1021.23 1020.86 1020.70 1020.79 1020.88 1021.01 1021.00 1020.72 1020.43 1020.30 1019.98 1019.47 1019.14 1018.53 1018.27 1017.70 1016.80 1015.36 1014.51 1014.36 1014.40 1014.59 1014.20 1014.64 1010.64 1009.02 1008.14 1007.71 1007.94 1008.16 1007.93 1008.21 1008.90 1009.23 1009.49 1009.89 1010.37 1010.65 1010.54 1010.69 1010.51 1010.07 1009.54 1008.48 1008.07
1021.08 1020.82 1020.70 1020.58 1020.58 1020.56 1020.57 1020.37 1020.54 1020.45 1020.52 1020.03 1019.76 1019.37 1018.78 1018.36 1018.23 1017.58 1016.77 1015.77 1015.23 1014.80 1014.61 1014.01 1013.49 1012.48 1010.37 1009.25 1008.13 1007.74 1007.65 1007.88 1007.91 1008.28 1008.74 1008.87 1009.47 1009.34 1009.50 1009.89 1009.94 1010.20 1010.11 1009.98 1009.15 1008.59 1008.61
1020.74 1020.64 1020.34 1019.94 1020.42 1020.45 1020.37 1020.00 1019.92 1020.21 1020.03 1019.95 1019.60 1019.17 1018.68 1018.21 1018.15 1017.75 1017.31 1017.33 1017.59 1017.50 1015.08 1013.12 1012.09 1011.33 1010.24 1010.18 1009.83 1008.18 1007.58 1007.84 1008.02 1008.10 1008.47 1009.04 1008.36 1008.30 1009.10 1009.68 1009.84 1009.96 1010.18 1009.76 1008.98 1008.19 1008.54
1020.31 1020.04 1019.94 1020.07 1019.98 1019.99 1020.09 1019.76 1019.55 1019.78 1019.71 1019.50 1019.49 1018.90 1018.44 1018.24 1017.94 1017.92 1017.89 1017.81 1017.81 1017.22 1015.94 1011.58 1010.58 1009.99 1009.17 1009.53 1008.89 1007.62 1007.96 1007.26 1007.53 1007.93 1007.97 1007.70 1007.48 1007.43 1008.46 1009.10 1009.59 1009.57 1009.73 1009.45 1009.24 1008.67 1008.15
1019.61 1019.61 1019.82 1019.87 1019.79 1019.55 1019.68 1019.57 1019.38 1019.33 1019.22 1019.24 1019.13 1018.83 1018.42 1018.23 1018.10 1018.23 1017.75 1017.62 1017.77 1017.44 1015.82 1011.25 1009.73 1008.53 1008.19 1008.22 1007.88 1006.49 1006.51 1006.97 1006.89 1007.09 1007.79 1007.76 1007.29 1007.40 1007.85 1008.22 1008.52 1008.94 1008.65 1008.99 1009.22 1009.79 1009.53
1019.10 1019.47 1019.55 1019.44 1019.24 1019.15 1019.19 1019.20 1019.07 1019.09 1019.03 1018.90 1018.86 1018.73 1018.58 1018.51 1018.64 1018.29 1017.89 1017.47 1017.31 1017.05 1014.47 1009.97 1008.46 1007.06 1007.46 1007.74 1006.92 1006.23 1005.97 1006.45 1006.38 1006.64 1007.08 1006.97 1006.82 1007.11 1007.46 1007.42 1008.02 1007.77 1007.97 1008.70 1009.10 1009.57 1009.68
1018.68 1018.83 1018.87 1018.68 1018.59 1018.60 1018.70 1018.67 1018.80 1018.91 1018.87 1018.72 1018.63 1018.65 1018.58 1018.49 1018.60 1018.18 1017.65 1017.33 1017.14 1016.73 1012.80 1009.44 1007.93 1007.53 1007.91 1007.44 1006.94 1006.29 1006.28 1006.40 1006.37 1006.67 1006.72 1006.67 1006.28 1006.25 1006.06 1006.51 1007.09 1007.24 1007.97 1008.49 1009.03 1009.53 1009.62
1018.24 1018.30 1018.19 1018.05 1018.02 1018.10 1018.21 1018.28 1018.30 1018.42 1018.54 1018.50 1018.43 1018.41 1018.51 1018.29 1018.21 1018.15 1017.63 1017.47 1017.32 1015.37 1011.37 1010.16 1009.05 1008.38 1008.06 1007.77 1007.35 1006.96 1006.91 1007.00 1006.87 1007.14 1006.78 1006.75 1006.07 1005.73 1005.62 1006.08 1006.66 1007.14 1007.99 1009.12 1009.76 1009.93 1008.99
1017.56 1017.43 1017.43 1017.41 1017.45 1017.56 1017.60 1017.62 1017.72 1017.99 1018.17 1018.15 1018.17 1018.20 1018.14 1018.09 1017.99 1017.99 1017.88 1017.84 1016.69 1013.31 1011.96 1010.87 1010.00 1009.07 1008.87 1008.94 1008.54 1007.99 1007.73 1007.70 1007.56 1007.31 1007.08 1006.86 1006.35 1005.51 1005.12 1005.25 1005.68 1006.36 1007.25 1008.24 1009.11 1009.19 1008.67
1016.85 1016.69 1016.69 1016.70 1016.80 1016.85 1016.97 1017.11 1017.38 1017.57 1017.70 1017.86 1018.01 1018.37 1018.22 1017.75 1017.84 1018.29 1018.48 1017.69 1015.08 1013.57 1012.44 1011.58 1010.65 1010.35 1010.19 1009.97 1009.81 1009.08 1009.17 1008.86 1008.80 1008.15 1008.10 1007.02 1006.12 1004.71 1004.19 1004.07 1004.72 1005.63 1006.36 1006.88 1007.97 1008.73 1008.69
1015.91 1015.82 1015.83 1015.88 1016.10 1016.23 1016.43 1016.71 1016.89 1017.02 1017.38 1017.55 1018.14 1018.03 1017.49 1017.36 1017.68 1018.36 1018.39 1016.57 1015.02 1013.71 1012.96 1012.30 1011.93 1011.63 1011.50 1011.18 1010.82 1010.47 1010.20 1009.79 1009.46 1009.04 1008.32 1007.71 1006.68 1005.04 1004.19 1004.00 1004.11 1004.29 1005.18 1006.55 1007.69 1008.22 1008.19
1015.09 1015.02 1015.06 1015.16 1015.35 1015.51 1015.81 1016.00 1016.27 1016.62 1016.86 1017.23 1017.96 1017.46 1016.28 1016.49 1017.62 1018.00 1016.97 1016.20 1015.04 1014.05 1013.54 1013.29 1012.80 1012.54 1012.59 1012.48 1012.08 1011.68 1010.87 1010.29 1010.03 1009.46 1009.00 1008.93 1007.86 1006.42 1005.16 1004.40 1004.23 1004.55 1004.72 1005.43 1006.04 1006.54 1006.59
1014.17 1014.09 1014.24 1014.34 1014.56 1014.82 1015.08 1015.39 1015.59 1015.96 1016.42 1016.95 1017.33 1016.84 1016.23 1016.53 1017.36 1016.48 1015.79 1015.79 1015.29 1014.48 1013.83 1013.61 1013.47 1013.27 1013.05 1013.15 1013.17 1012.83 1011.95 1011.00 1010.33 1010.16 1010.04 1009.94 1009.34 1007.82 1005.91 1004.74 1004.44 1004.48 1004.31 1004.70 1005.54 1005.95 1005.73
1013.15 1013.22 1013.42 1013.52 1013.78 1014.08 1014.43 1014.55 1014.87 1015.35 1015.81 1016.78 1016.52 1016.23 1016.33 1016.03 1015.59 1015.37 1015.44 1015.34 1015.27 1015.06 1014.54 1014.17 1013.90 1013.67 1013.62 1013.68 1013.96 1013.10 1012.37 1011.28 1010.94 1010.84 1011.05 1010.60 1010.15 1009.22 1006.86 1005.45 1004.64 1004.61 1004.41 1004.44 1004.57 1005.03 1004.36
1012.02 1012.21 1012.38 1012.59 1012.89 1013.19 1013.52 1013.78 1014.14 1014.61 1015.02 1016.36 1016.22 1015.76 1015.58 1015.01 1014.60 1014.75 1015.05 1014.97 1014.80 1014.66 1014.79 1014.53 1014.21 1014.10 1014.13 1014.15 1013.85 1013.52 1012.95 1011.98 1011.33 1011.37 1011.28 1011.19 1010.59 1010.50 1009.43 1008.31 1007.01 1005.78 1004.04 1003.88 1004.24 1004.25 1003.65
1010.91 1011.03 1011.20 1011.40 1011.71 1012.05 1012.39 1012.78 1013.25 1013.80 1014.32 1015.75 1015.33 1014.32 1013.99 1013.72 1013.66 1014.02 1014.33 1013.80 1013.94 1014.14 1014.22 1014.06 1014.20 1014.15 1014.35 1014.30 1014.00 1013.61 1013.30 1012.64 1011.68 1011.38 1011.43 1011.41 1010.94 1010.53 1009.96 1009.33 1008.16 1006.01 1004.92 1003.40 1003.10 1002.89 1002.92
1009.61 1009.71 1009.83 1010.07 1010.38 1010.70 1011.06 1011.55 1012.08 1012.80 1013.60 1014.67 1013.96 1013.63 1013.45 1012.85 1012.85 1013.10 1013.29 1012.89 1013.22 1013.45 1013.60 1013.64 1013.66 1013.60 1013.72 1013.77 1013.89 1013.44 1013.00 1012.81 1012.10 1011.89 1011.83 1011.99 1011.39 1010.76 1009.27 1008.45 1007.02 1005.39 1004.08 1003.11 1002.23 1002.03 1001.78
1008.11 1008.13 1008.25 1008.46 1008.74 1009.06 1009.48 1010.03 1010.68 1011.39 1012.36 1012.64 1012.73 1012.85 1013.00 1011.86 1012.52 1012.46 1011.73 1012.12 1012.17 1012.78 1012.60 1012.62 1012.90 1013.10 1012.88 1012.43 1012.76 1013.10 1012.93 1012.89 1012.82 1012.70 1012.71 1012.60 1011.93 1011.03 1008.89 1008.24 1006.97 1004.73 1002.24 1001.28 1001.47 1001.21 1000.87
1006.37 1006.39 1006.49 1006.65 1006.87 1007.25 1007.71 1008.39 1009.16 1009.87 1010.40 1011.21 1011.23 1012.28 1012.02 1011.18 1010.93 1010.34 1010.79 1011.25 1011.52 1011.65 1011.93 1011.92 1012.31 1012.59 1011.42 1012.23 1012.32 1012.34 1012.12 1011.99 1012.01 1011.96 1011.99 1012.07 1012.06 1011.41 1009.56 1008.51 1006.49 1002.43 1000.92 1000.71 1000.60 1000.23 1000.17
1004.37 1004.37 1004.56 1004.77 1005.00 1005.34 1005.97 1006.69 1007.42 1008.19 1008.94 1010.02 1010.50 1010.74 1010.49 1010.12 1010.19 1010.14 1010.14 1010.29 1010.87 1011.15 1011.20 1011.45 1011.53 1011.28 1011.99 1012.59 1012.64 1012.38 1011.77 1011.58 1010.85 1010.50 1010.56 1010.77 1011.21 1010.90 1009.61 1008.18 1006.66 1003.65 1001.95 1000.87 1000.45 999.59 999.42
1002.67 1002.69 1002.78 1002.96 1003.06 1003.35 1003.83 1004.71 1005.60 1006.43 1007.41 1008.49 1009.03 1009.81 1009.36 1009.32 1007.72 1009.13 1009.38 1009.43 1009.72 1010.30 1011.09 1010.92 1011.03 1011.21 1012.07 1012.76 1012.69 1012.30 1011.86 1010.85 1010.15 1009.33 1008.79 1009.67 1010.18 1010.31 1009.23 1007.88 1006.34 1003.58 1002.94 1002.04 1000.61 1000.12 998.99
1001.10 1001.20 1001.50 1001.84 1002.04 1002.37 1002.84 1003.44 1004.02 1004.87 1005.83 1006.93 1007.12 1008.06 1008.86 1008.11 1007.38 1007.65 1007.46 1007.93 1008.84 1009.40 1009.91 1010.15 1010.49 1011.05 1011.70 1012.01 1012.50 1012.25 1011.67 1010.85 1009.91 1009.09 1008.92 1009.30 1009.33 1009.01 1008.43 1007.16 1005.42 1003.65 1003.29 1002.93 1001.94 1000.86 999.81
999.79 999.96 1000.23 1000.58 1000.95 1001.29 1001.74 1002.29 1002.86 1003.60 1004.42 1005.35 1005.88 1006.79 1007.43 1007.49 1007.22 1006.76 1006.80 1006.86 1007.38 1008.09 1009.01 1009.53 1010.23 1010.28 1010.78 1011.44 1011.77 1011.57 1011.25 1010.31 1009.61 1008.75 1008.05 1007.90 1007.95 1007.29 1007.12 1006.51 1005.34 1004.35 1003.33 1003.28 1002.44 1001.00 1000.16
998.43 998.71 999.09 999.51 999.94 1000.34 1000.81 1001.34 1001.82 1002.50 1003.28 1004.17 1005.14 1005.76 1006.87 1007.17 1006.80 1006.25 1005.69 1005.72 1005.82 1006.57 1008.17 1008.79 1008.39 1008.77 1009.35 1010.09 1010.77 1010.58 1010.51 1010.12 1009.21 1008.61 1007.36 1007.35 1006.66 1006.33 1006.14 1004.70 1004.19 1003.49 1003.21 1002.08 1002.35 1001.63 1000.46
Wind_Speed
11 8 8 9 11 10 9 11 10 9 10 12 14 14 14 17 17 17 15 16 15 17 18 18 20 19 8 4 12 3 4 3 4 5 5 4 4 5 5 5 3 5 6 5 9 9 8
12 12 12 11 11 13 12 11 10 10 12 11 12 15 15 16 18 19 18 17 17 17 17 16 17 15 3 5 3 3 9 1 2 4 5 7 5 6 3 5 6 5 4 9 9 8 6
13 11 10 11 9 9 10 10 11 12 11 13 13 13 15 16 18 20 20 20 20 20 19 18 14 5 5 20 2 4 7 3 3 2 4 4 2 1 2 2 4 4 5 8 7 3 6
13 12 13 13 10 7 8 9 10 11 12 12 14 12 14 16 17 18 21 23 24 24 22 17 9 5 11 5 4 6 4 6 7 6 2 3 2 3 3 3 5 2 5 4 5 3 2
13 13 13 12 10 9 9 9 10 12 12 13 13 13 13 15 17 19 22 27 28 17 6 4 7 5 13 5 4 7 8 5 4 6 4 1 5 5 2 4 4 5 3 4 9 4 2
16 14 15 14 11 12 11 9 11 12 11 12 13 13 13 14 17 18 24 29 16 2 6 5 3 2 6 4 3 2 4 4 1 7 5 5 3 4 2 4 7 6 4 4 7 4 4
15 18 17 16 16 15 14 12 11 11 12 12 13 14 13 15 17 17 15 7 7 4 5 6 4 7 7 8 5 1 3 2 1 4 8 6 5 12 13 6 6 4 3 3 8 5 5
18 18 18 18 17 16 16 14 9 12 10 12 12 14 15 14 16 17 5 4 5 5 15 14 19 18 23 6 7 4 2 5 4 6 6 2 12 10 9 9 7 4 4 8 10 6 6
20 19 20 20 19 15 16 14 11 10 11 10 12 13 15 14 15 4 2 2 7 8 7 9 5 7 8 12 12 18 4 4 6 7 10 14 5 13 11 7 8 6 10 6 8 7 5
19 18 19 19 17 16 15 14 13 12 11 12 11 10 13 15 3 3 3 7 6 4 5 9 4 7 4 8 7 14 12 8 6 11 6 9 14 3 6 11 10 10 9 8 5 4 5
18 19 19 19 19 16 14 13 12 11 12 12 10 10 11 6 5 4 3 10 10 2 7 1 4 3 2 5 6 2 6 5 10 6 7 8 4 9 8 6 10 10 8 8 5 5 2
21 22 21 19 19 18 16 10 9 11 14 13 9 10 11 3 1 4 7 10 1 1 10 3 3 3 2 4 5 1 3 2 6 3 2 6 3 7 10 9 12 3 3 5 2 3 4
20 19 20 19 19 15 12 13 12 12 14 13 11 10 7 0 3 4 5 4 2 7 5 2 3 4 4 5 4 5 4 7 4 5 13 2 8 3 3 4 7 6 5 2 2 1 6
21 21 20 19 19 16 16 15 13 13 13 12 11 10 5 3 1 4 4 3 9 3 4 4 5 7 4 8 5 8 3 3 5 1 2 11 9 10 6 9 7 10 10 7 6 5 4
23 22 20 20 19 17 16 15 13 12 11 12 11 1 2 2 5 3 3 3 6 4 3 5 3 5 4 5 5 7 5 5 7 6 3 3 6 5 7 11 13 6 8 8 4 1 2
24 23 23 18 18 16 15 15 15 13 14 12 1 3 4 6 6 3 3 8 5 2 5 4 2 4 5 6 8 8 5 3 5 6 3 5 5 4 5 3 6 9 7 4 1 6 5
24 24 22 19 18 17 16 17 16 15 14 12 2 3 4 10 5 4 8 5 2 8 3 4 3 3 2 4 4 4 2 3 4 6 5 6 3 7 9 3 8 4 9 3 5 6 7
25 22 20 22 20 19 18 18 16 16 15 7 4 5 3 8 7 4 12 5 2 6 5 4 1 2 2 3 3 1 4 4 5 3 4 3 3 4 11 16 11 4 7 13 10 5 3
22 21 21 22 20 20 20 20 18 16 16 4 4 3 4 6 10 12 4 11 9 4 3 2 4 5 2 2 3 6 6 6 4 5 5 6 2 6 8 5 3 5 5 5 2 3 9
23 23 23 22 22 23 22 21 21 20 18 6 3 5 5 7 6 12 16 13 12 6 14 6 2 2 2 1 3 3 4 6 8 9 5 3 5 6 5 9 15 13 8 14 8 6 7
24 24 23 23 24 24 24 23 22 21 21 8 7 5 6 6 9 13 12 5 18 11 8 9 6 11 6 5 4 10 10 13 13 10 5 3 5 3 11 14 21 27 22 10 15 12 10
25 26 26 26 26 26 27 25 24 25 22 10 6 6 4 3 3 15 16 15 15 15 11 7 8 8 11 11 10 4 3 3 4 3 2 2 4 3 7 14 18 21 21 14 14 5 6
29 28 28 28 28 28 27 28 27 26 25 9 9 4 5 8 12 11 17 18 17 17 10 18 15 12 12 15 11 12 13 10 7 7 1 2 3 2 10 10 21 11 26 21 8 6 6
31 30 30 29 30 30 30 29 29 30 28 10 5 4 7 9 15 18 16 21 21 18 21 8 13 15 18 5 5 5 10 15 14 13 9 7 3 3 6 7 9 9 5 14 14 12 9
30 29 29 30 30 30 30 30 30 32 33 14 10 6 6 11 10 11 14 13 17 19 19 17 17 13 6 3 4 4 3 2 10 17 16 17 7 4 4 4 8 16 6 6 8 19 14
28 28 28 26 26 22 29 30 30 32 33 17 13 11 5 7 18 13 14 16 11 11 11 14 13 9 5 2 2 3 4 4 4 4 14 13 11 8 3 3 6 7 10 15 1 11 7
24 23 21 22 22 22 21 22 26 30 32 19 7 16 7 5 5 15 14 13 12 9 3 4 8 10 13 4 4 5 5 4 3 2 3 5 7 14 8 5 7 4 9 19 6 6 6
22 22 21 21 20 20 20 22 24 25 29 20 11 13 13 2 7 11 14 9 11 14 6 4 5 3 5 7 4 4 4 5 4 5 3 7 6 5 4 5 8 3 12 6 5 8 7
23 22 22 22 22 22 22 22 22 23 24 26 6 11 12 7 2 11 14 17 19 18 11 5 4 3 5 4 3 3 3 0 5 3 4 6 7 3 6 5 4 3 7 19 11 11 9
Wind_Direction
330 335 342 343 320 307 307 311 321 318 319 323 325 327 332 326 324 317 316 314 310 309 310 313 316 327 334 357 252 300 352 50 114 128 167 170 191 155 188 186 155 197 259 242 248 280 259
309 316 321 322 328 323 329 336 334 318 309 309 311 316 322 324 325 322 317 310 306 303 300 302 308 324 266 283 241 34 26 351 244 159 176 162 209 216 196 203 177 208 248 280 282 269 249
299 299 296 295 297 307 310 317 315 319 324 326 321 311 310 316 321 320 317 311 306 296 287 286 292 290 253 241 223 320 345 280 304 289 188 176 184 194 133 230 226 230 291 311 276 250 236
299 287 303 302 292 293 304 307 309 313 317 317 319 318 313 312 312 314 312 308 302 298 290 275 263 214 252 262 275 270 190 275 229 225 232 256 158 202 186 265 340 310 73 354 282 271 311
302 297 286 285 300 291 295 304 309 309 315 315 316 314 316 322 314 314 314 308 305 314 318 170 152 196 262 289 256 266 160 223 184 159 179 118 131 190 137 133 356 346 227 228 310 297 112
292 303 302 300 291 296 284 291 305 309 311 314 316 317 318 328 324 321 315 307 293 302 73 148 194 309 263 288 315 281 174 259 198 129 117 152 150 157 119 139 212 203 217 246 250 305 347
300 293 287 296 297 285 277 281 292 303 304 311 317 323 324 330 331 333 330 336 10 341 10 236 242 273 285 325 314 177 158 122 256 135 174 184 155 213 197 182 170 156 173 232 264 253 317
296 295 291 282 284 286 286 278 284 296 295 309 316 322 321 328 331 331 342 39 65 302 295 253 243 251 260 300 315 300 144 150 169 194 133 130 223 212 171 191 189 170 243 263 286 289 189
288 291 295 288 272 274 285 279 276 292 302 307 311 318 320 326 326 15 325 290 340 335 270 287 222 240 231 175 231 256 207 186 190 170 193 206 223 177 174 162 184 198 212 228 226 348 276
283 287 284 284 277 275 271 274 277 280 292 298 299 313 319 327 356 331 298 327 319 277 298 276 232 261 202 151 258 215 206 199 217 189 178 231 232 175 198 213 180 219 193 229 253 67 247
283 281 281 281 272 265 263 269 276 283 292 296 294 306 308 328 298 317 316 318 317 193 324 237 169 185 227 191 299 196 193 174 212 185 147 233 163 211 212 219 168 232 154 194 210 205 332
275 271 272 272 273 273 268 253 260 283 284 283 291 292 300 346 343 275 319 310 55 304 247 336 111 134 239 225 284 355 113 351 186 231 205 221 192 169 204 189 185 118 152 206 115 138 232
280 280 276 277 274 264 251 258 267 267 269 272 275 279 282 235 250 331 327 357 198 220 337 20 353 344 332 326 17 338 128 190 163 169 232 168 235 207 204 149 193 166 98 294 317 203 224
275 274 274 272 263 250 252 254 249 253 263 266 274 274 266 204 358 12 12 50 218 261 285 352 346 324 64 16 10 351 76 131 290 314 168 207 267 168 183 199 186 200 173 165 201 201 226
275 278 271 275 267 260 257 257 251 252 256 258 274 281 239 244 165 68 62 203 214 209 344 359 335 48 5 18 9 23 30 358 32 358 297 209 251 259 212 200 181 189 197 188 101 46 68
267 266 273 264 260 259 256 249 246 247 252 253 158 242 232 165 148 118 187 238 234 313 1 357 60 44 1 347 17 31 12 355 3 17 223 292 298 247 268 179 228 184 175 115 356 187 228
271 271 269 266 266 263 258 249 241 241 239 240 197 233 247 141 127 188 221 222 345 305 320 5 349 324 34 6 359 343 281 311 344 338 28 4 205 287 328 208 182 155 219 197 170 162 186
272 264 261 261 253 261 261 253 242 234 229 237 238 221 155 137 194 201 225 177 301 317 4 241 234 309 326 41 346 278 286 297 22 352 6 62 316 291 262 265 275 306 243 212 222 228 227
266 264 262 259 258 256 252 250 238 227 213 141 234 207 175 169 214 217 211 222 232 249 329 253 241 214 183 233 229 225 256 296 112 55 26 347 22 325 329 294 358 240 196 232 166 115 211
265 263 262 258 254 250 245 241 233 222 217 165 251 217 184 212 229 210 215 229 228 197 232 260 289 24 71 253 202 287 335 313 332 328 165 179 210 232 279 300 307 294 219 223 210 221 224
265 263 259 255 249 245 240 235 228 222 216 184 206 212 207 201 226 205 207 212 218 220 207 213 252 246 239 264 278 275 281 272 277 263 172 221 254 222 266 280 280 275 268 232 215 221 217
267 262 258 252 247 242 237 229 226 216 213 208 216 206 201 257 163 194 203 212 226 215 185 208 226 200 219 235 220 277 224 195 263 39 128 183 254 293 279 292 258 256 250 226 225 195 235
262 260 256 252 248 242 236 231 226 215 199 208 212 205 231 229 216 203 211 215 209 213 229 231 210 232 242 225 221 241 253 260 258 283 239 249 272 346 268 312 314 256 227 221 211 200 181
260 258 254 250 248 243 235 227 221 218 208 211 195 183 208 234 201 209 207 212 223 212 219 203 226 237 243 288 258 285 252 239 235 239 222 222 246 224 280 333 249 253 190 217 224 238 217
261 260 259 255 249 242 235 229 221 215 215 213 208 212 190 231 224 225 224 210 211 221 231 227 221 224 240 49 236 254 285 253 236 228 218 209 185 251 246 257 303 305 292 192 183 254 243
261 257 253 249 247 239 227 223 219 215 213 214 208 213 229 208 222 206 208 205 203 205 221 240 250 235 148 211 201 223 227 227 240 233 212 193 208 215 213 199 240 225 319 333 2 277 234
260 255 247 244 235 226 220 218 218 216 212 206 209 194 199 247 195 190 205 206 200 173 199 174 220 220 201 183 220 219 230 261 269 272 160 190 200 222 216 242 269 258 343 311 176 252 335
252 248 236 231 229 227 222 216 211 212 211 206 207 191 200 213 212 213 203 196 185 191 175 158 177 184 163 185 200 184 192 228 201 248 208 193 186 202 200 221 263 358 7 306 277 305 328
247 241 235 230 227 224 222 220 217 211 205 199 207 182 193 224 297 224 213 213 196 184 179 205 204 152 156 151 193 184 214 106 179 226 232 256 192 216 188 222 205 265 259 268 257 262 288